User: anonymous   Login
Location: Unspecified
(42.3650°N, 71.1030°W)
Time: 00:48:41
(UTC+00:00)
Language:

CZ-4B R/B - Orbit

View from above orbital plane
View from above orbital plane
View from above satellite
View from above satellite

Ground track
Ground track

The orbit data is extracted from the following two-line orbital elements,

1 33410U 08053C   24144.57794744  .00008079  00000-0  45338-3 0  9999
2 33410  97.8808 177.7051 0109286 331.3560  28.1691 15.08607101850311
Epoch (UTC): 23 May 2024 13:52:14
Eccentricity: 0.0109286
inclination: 97.8808°
perigee height: 465 km
apogee height: 616 km
right ascension of ascending node: 177.7051°
argument of perigee: 331.3560°
revolutions per day: 15.08607101
mean anomaly at epoch: 28.1691°
orbit number at epoch: 85031

The dashed part of the orbit path shows where the satellite is in the earth's shadow,  

DLR